H-2A R/B, 38341

Orbit data source: Space-Track

H-2A R/B, 38341 is space debris in SSO originally from a launch on Thu, 17 May 2012 UTC launched from the Tanegashima Space Center (TNSTA). Debris objects in space refer to the collection of defunct objects orbiting the Earth. Examples of debris include non-operational satellites, rocket bodies, and fragments generated from explosions, collisions, or faulty payload assembly.

Loading next visibility...
Identifier
38341, 2012-025E
Orbit
SSO
Country
Flag of JPJP / JPN
Related business
Manufacturer
MHI Tobishima
Mission
Spacecraft
Bus & Motor
H-2A STAGE 2, Unknown motor
Mass
4,000 kg wet, 4,000 kg dry
Launch date (UTC)
2012-05-17 (13 years ago)
Launch vehicle
Unknown
Launch site
Tanegashima Space Center (TNSTA)
Object type
Payload
Rocket body
Debris
Shape & HBR
Cyl, 4.6 m
Radar Cross Section
35.186 m², Large (>1 m²)

Expand to show TLE details & history
Last TLE update: 19 hours ago

TLE from 19 hours ago
0 H-2A R/B
1 38341U 12025E   25308.80525433  .00004251  00000-0  39672-3 0  9999
2 38341  98.4529 261.1350 0045725   3.0597 357.0892 14.94026765729560
Epoch: 2025-11-04T19:19Z
TLE epoch observation values (Epoch: 2025-11-04T19:19:33.974Z)
Latitude
0.00002°
Longitude
-73.04357°
Altitude
556.613 km
Speed
7.601 km/s
True Right ascension
17h 24m 32s
True Declination
0° 00' 00"
Sunlit
Object was in daylight at epoch
Visualization orbit readout
Latitude
Unknown
Longitude
Unknown
Altitude
Unknown
Speed
Unknown
Apparent Right ascension
Unknown
Apparent Declination
Unknown
Sunlit
N/A
Visualization observer readout
Local Sidereal Time
10:13:35
Azimuth
Unknown
Elevation
Unknown
Doppler factor
Unknown
Orbital elements
Apogee altitude
614.27 km
Perigee altitude
550.616 km
Semi-major axis
6,960.58 km
Eccentricity
0.00457
Inclination
98.4529°
RAAN
261.135°
Arg. of periapsis
3.0597°
True anomaly
357.06244°
Mean anomaly
357.0892°
Eccentric anomaly
357.07584°
Mean motion
3.73745 °/min
Orbital period
96.32 mins
BSTAR
0.00039672
Loading maneuver chart data...
Computing Atmospheric mass density...
Loading historical data...
Loading historical data...
Loading historical data...
Loading historical data...
Loading historical data...
Loading historical data...
Loading historical data...

Documentation

Showing up to 5 results
|